Wind_Speed
27 31 36 37 31 31 23 17 16 14 14 11 7 7 7 4 4 4 13 16 17 16 16 17 16 18 20 21 20 18 19 18 17 15 14 12 10 10 10 10 9 8 8 8 9 10 12 13 15
26 31 32 33 30 32 25 21 18 16 15 13 8 9 6 7 3 6 12 15 15 14 14 14 14 15 17 18 19 18 17 18 16 13 12 10 8 7 8 8 9 8 7 7 7 8 8 10 11
25 26 28 35 34 29 26 22 21 20 19 14 11 12 12 8 3 6 12 13 12 12 10 11 11 12 14 15 16 16 16 15 16 13 10 8 7 5 4 6 7 8 9 7 5 7 8 10 9
26 23 23 27 28 26 23 21 20 24 26 23 18 15 15 8 6 8 10 10 9 9 8 9 10 11 12 12 12 13 13 14 13 13 10 8 6 4 2 4 5 5 6 7 6 5 7 9 10
23 15 15 20 24 21 19 18 22 20 33 26 19 21 17 12 5 7 8 8 7 7 8 8 9 10 11 12 12 12 11 10 11 10 8 8 6 4 3 4 5 6 6 6 6 6 7 7 8
15 10 13 17 20 18 11 5 16 8 20 26 20 25 18 16 8 4 4 3 3 4 5 6 8 9 10 11 10 9 9 9 9 8 7 5 4 5 3 1 4 7 7 7 7 7 7 8 9
11 8 13 14 16 14 12 7 20 17 21 12 24 20 17 12 9 4 1 1 1 3 7 6 7 9 7 7 8 7 6 6 5 5 5 5 4 1 4 6 5 5 6 7 8 8 8 8 8
14 7 10 12 13 12 6 11 10 13 14 14 11 5 14 12 6 5 4 5 6 8 10 8 8 11 10 9 10 11 10 8 8 7 5 4 4 4 5 6 8 9 10 9 9 9 9 9 10
17 8 12 9 7 7 7 9 10 10 10 7 9 10 8 10 8 6 6 8 10 11 11 12 13 14 12 11 12 13 14 16 18 18 17 12 10 9 8 8 9 9 11 13 14 14 13 12 11
14 10 11 12 7 8 10 10 11 12 11 2 7 7 7 11 7 6 9 10 12 14 14 15 16 17 16 14 15 17 18 19 18 17 16 17 18 15 14 13 13 13 13 12 13 15 17 17 15
13 8 9 10 9 7 5 9 9 9 4 2 2 2 3 4 4 7 10 13 14 17 16 17 18 18 18 19 20 20 21 22 23 22 23 22 19 19 19 18 18 17 17 18 17 16 16 17 18
10 6 7 7 8 7 7 8 9 7 6 5 4 3 2 6 9 10 9 11 13 14 15 17 18 21 23 24 24 25 25 26 27 27 27 28 28 28 27 26 25 24 22 21 21 22 22 21 19
13 8 6 5 3 4 6 7 5 4 5 5 4 3 5 7 8 10 11 12 15 17 19 22 23 24 24 25 24 24 23 24 25 27 27 28 29 30 31 30 29 28 28 27 26 25 24 25 25
12 10 6 4 3 4 5 4 1 3 3 5 6 6 6 9 12 14 15 17 19 21 22 23 24 25 26 27 28 29 29 30 30 30 31 31 31 31 32 33 33 33 31 31 31 30 29 27 27
8 10 6 4 2 1 4 4 1 2 3 4 5 8 11 14 16 19 20 22 24 25 27 28 28 29 29 30 31 32 32 32 33 34 34 35 36 37 37 36 35 35 36 34 33 35 32 31 31
8 5 4 5 8 9 7 5 3 2 5 7 10 12 14 15 17 19 21 23 24 27 29 31 31 32 33 34 34 34 35 36 37 39 40 39 38 39 39 40 40 40 39 38 39 37 36 37 37
9 8 8 7 5 4 2 3 5 5 6 9 10 12 14 16 17 19 20 22 23 26 27 28 29 30 30 31 32 32 31 33 36 41 45 47 45 43 41 40 40 41 42 42 41 40 39 39 40
11 9 5 3 1 1 2 5 6 7 8 10 11 13 15 17 18 20 20 21 22 25 27 26 25 26 27 27 27 27 27 29 31 35 41 45 45 42 40 39 39 39 40 42 42 43 43 42 42
8 6 4 2 2 3 4 5 6 8 9 11 13 15 17 20 22 23 23 25 24 24 24 25 24 24 24 25 24 23 24 25 29 32 35 33 30 30 31 32 31 32 32 35 36 38 41 42 42
11 8 6 3 3 4 5 7 9 11 13 16 19 21 23 23 25 26 26 27 28 25 25 23 23 24 23 23 23 21 20 21 25 28 29 28 26 25 25 26 25 25 26 28 30 32 34 36 37
10 9 7 5 3 4 7 10 11 13 15 18 20 22 23 24 25 26 28 30 30 28 27 25 25 25 22 23 24 22 20 18 20 22 22 22 22 23 22 22 23 24 23 23 25 26 27 29 31
10 7 6 4 3 5 7 12 15 16 19 22 24 24 23 24 25 26 29 30 30 30 29 26 25 26 26 26 26 23 23 20 19 18 18 17 15 15 14 15 16 18 17 17 19 21 23 25 27
10 8 5 5 6 7 9 11 14 17 19 21 26 28 26 26 27 28 31 31 30 31 31 29 27 26 26 28 27 26 25 21 19 18 15 13 12 12 14 14 13 13 17 16 15 16 16 16 15
10 8 7 8 9 10 10 13 16 17 19 22 25 27 29 29 29 31 32 33 32 32 32 32 32 30 28 29 29 28 26 23 22 21 21 19 19 18 18 18 18 18 18 19 21 20 20 19 20
12 10 10 11 12 12 13 13 18 20 22 23 25 26 29 31 31 33 33 34 34 35 35 35 34 33 34 32 31 30 29 30 29 28 27 26 25 24 25 25 27 27 26 24 24 25 26 27 28
15 14 15 14 14 15 16 17 20 23 25 27 27 29 30 31 32 34 36 37 37 38 39 39 37 35 35 35 34 34 34 33 34 34 33 33 32 33 33 33 32 32 32 32 32 30 30 31 33
17 17 19 18 17 16 17 20 22 25 27 28 30 32 34 35 36 37 37 38 40 41 40 40 40 39 37 36 37 36 37 40 40 39 39 39 39 39 39 40 41 42 43 42 40 38 38 37 37
20 20 21 22 23 20 19 21 25 27 29 31 31 34 35 36 38 39 39 39 40 42 41 40 40 40 40 40 40 40 41 41 43 45 46 46 46 44 45 46 48 49 51 50 48 46 45 45 46
23 22 23 24 25 25 26 27 25 29 30 32 34 36 37 37 39 40 41 40 40 42 42 41 41 42 42 43 44 44 45 45 45 46 48 52 53 53 53 53 53 53 54 55 54 55 55 56 55
26 24 26 29 28 28 28 29 31 31 33 35 37 40 41 39 40 42 42 42 43 44 44 43 43 43 43 44 45 46 47 47 48 49 51 51 52 54 57 60 61 62 63 64 64 65 66 66 65
Wind_Direction
175 176 190 190 190 196 187 179 178 196 174 166 159 140 123 134 159 161 141 112 94 92 85 79 71 66 64 60 61 64 60 59 63 72 86 94 98 92 78 76 77 80 82 77 67 56 50 45 45
171 177 189 188 192 198 191 191 189 186 182 178 159 130 123 132 134 141 103 93 92 85 75 72 68 65 63 60 57 58 65 66 68 76 84 93 102 96 82 69 61 61 67 71 66 58 46 44 40
175 181 185 191 192 199 201 191 197 188 190 189 174 149 125 131 109 72 73 87 82 76 70 66 63 63 60 57 56 56 55 65 76 80 78 81 89 102 68 61 56 53 54 52 54 53 42 44 41
180 181 183 188 192 200 200 205 207 203 194 195 179 161 131 114 129 97 88 85 74 64 55 53 53 54 55 52 48 51 53 53 62 82 95 79 60 57 41 4 15 22 41 49 35 30 27 29 36
184 185 175 184 195 205 209 212 220 193 189 193 187 156 136 134 131 88 70 52 53 56 45 38 36 38 38 39 38 33 33 46 52 60 84 109 109 71 31 340 328 338 348 11 20 17 4 3 9
174 161 155 184 197 197 208 309 336 19 7 197 196 150 132 149 142 134 86 55 28 24 24 16 20 29 30 25 18 22 28 23 20 35 45 66 125 155 167 320 320 316 313 322 332 343 349 352 352
142 146 156 183 200 199 227 341 35 14 13 24 148 138 139 154 161 203 305 274 265 323 350 343 349 353 357 356 357 359 4 8 17 9 4 10 0 307 225 227 239 273 297 302 309 309 311 319 331
127 115 169 171 181 194 225 329 2 358 17 41 79 116 152 160 174 234 263 303 292 305 320 318 316 328 329 331 327 328 324 322 323 316 300 296 300 299 294 271 250 246 255 260 265 276 287 293 301
100 125 143 159 181 209 251 307 335 0 17 34 88 91 120 188 199 236 269 288 295 300 305 304 303 310 309 306 306 307 308 309 312 313 309 295 281 272 263 268 272 266 258 259 261 259 258 265 270
93 112 136 151 180 221 244 272 326 349 348 41 131 119 139 172 185 230 258 277 281 290 295 299 299 300 301 302 307 308 305 304 303 302 301 303 304 294 282 276 269 269 269 266 267 268 266 260 259
120 138 155 172 192 217 264 319 359 356 6 39 110 94 175 228 257 267 284 286 293 290 289 297 299 302 298 300 303 299 299 300 299 299 300 298 292 289 290 287 283 276 270 272 271 267 269 271 268
104 122 164 187 217 255 292 328 329 342 15 38 20 9 1 332 317 307 295 288 286 293 295 297 296 298 297 295 294 295 295 295 294 292 291 290 290 287 285 283 280 277 274 267 261 263 267 265 264
144 158 165 162 196 252 280 320 332 331 356 11 358 345 331 321 319 316 317 306 291 291 293 297 299 299 298 298 297 295 293 293 293 294 293 292 290 290 288 283 282 279 275 271 270 266 263 262 265
154 166 174 185 216 262 300 339 344 344 335 338 332 329 316 320 326 325 321 314 311 307 303 300 299 298 297 296 296 296 296 294 291 290 290 289 287 285 284 285 286 284 280 276 270 267 265 263 263
156 157 178 188 236 117 83 92 79 65 41 13 341 329 327 324 322 317 313 311 311 309 307 304 303 301 300 299 299 298 296 295 292 289 285 282 282 282 282 281 280 280 281 279 276 274 270 265 263
142 148 153 143 117 111 101 112 125 39 353 334 326 327 321 321 313 309 307 305 305 305 304 302 301 301 302 302 300 298 295 294 292 291 287 283 277 274 273 273 274 275 275 274 275 276 275 272 269
138 125 124 117 100 81 44 346 349 334 322 317 315 312 312 305 305 303 307 306 309 305 301 299 298 298 298 296 296 296 295 295 295 291 289 288 287 283 278 273 271 270 270 271 272 272 273 273 274
127 129 139 131 108 3 303 301 292 301 305 301 315 306 308 315 321 315 310 309 312 311 306 304 302 300 298 297 296 294 297 300 299 296 292 290 287 284 283 283 281 277 274 269 267 269 270 271 274
132 145 153 195 236 254 265 269 291 307 312 312 321 325 327 328 326 323 323 323 321 315 309 306 303 300 296 294 292 293 292 299 307 307 305 307 305 296 293 288 283 279 277 276 275 272 270 269 272
161 165 172 196 251 277 297 313 325 325 326 329 333 334 335 331 330 328 323 322 324 320 316 310 304 299 295 292 287 289 300 312 313 310 311 313 312 312 308 296 287 282 281 278 275 273 274 274 272
169 173 191 204 228 300 321 326 327 326 327 329 328 327 326 326 326 323 319 321 322 322 321 315 309 303 294 290 292 296 302 302 302 303 306 306 307 307 303 300 298 293 286 279 276 275 271 270 269
189 198 209 213 259 297 316 319 321 323 327 327 326 322 321 322 320 318 315 318 321 320 319 315 306 300 296 293 293 295 294 291 290 295 299 304 310 314 316 313 305 299 296 290 285 281 279 277 275
205 215 224 245 269 287 303 304 310 313 319 322 320 317 317 319 319 316 315 319 318 315 314 313 304 299 292 288 287 291 292 289 289 286 283 288 297 300 308 310 312 305 310 307 307 302 293 289 289
213 231 248 268 280 288 296 303 307 311 316 318 318 313 311 312 313 312 315 316 314 311 309 307 304 298 294 286 283 287 286 279 283 281 281 283 287 288 289 293 294 294 294 292 296 300 292 286 293
231 242 261 270 280 288 295 297 302 307 309 312 314 312 310 312 311 309 312 312 310 308 306 305 302 299 296 292 282 281 282 280 279 277 276 279 280 282 284 285 286 285 287 288 288 289 288 290 292
241 248 257 268 272 285 293 297 302 306 308 311 312 314 313 311 310 309 312 312 308 308 310 310 307 304 296 292 290 282 280 278 278 277 276 278 279 278 279 280 283 285 287 288 287 286 285 284 286
246 250 259 268 274 281 291 295 302 306 308 309 311 312 312 313 313 313 312 312 310 310 310 309 309 308 305 299 292 287 281 276 277 278 275 275 275 275 276 275 276 278 283 284 284 283 283 282 282
255 258 267 275 280 287 293 297 304 304 307 307 309 309 309 312 313 314 313 311 309 308 309 310 308 307 306 303 298 293 289 286 281 277 276 276 275 273 273 274 275 276 279 281 281 281 281 283 283
257 265 269 274 282 289 295 296 300 302 305 308 309 307 307 310 311 314 313 310 309 308 308 307 306 305 302 299 297 296 294 291 287 284 281 279 277 275 274 274 274 276 277 279 279 280 280 281 281
261 267 273 274 278 285 293 294 301 302 307 309 309 307 308 309 310 311 311 310 310 307 305 303 301 299 297 295 293 292 292 292 291 290 288 286 284 282 280 279 277 277 278 278 278 278 278 278 277
Height
5859 5866 5870 5877 5884 5886 5889 5891 5892 5894 5895 5894 5895 5895 5895 5896 5896 5899 5893 5894 5894 5894 5894 5893 5893 5892 5891 5890 5888 5887 5886 5885 5884 5883 5883 5883 5884 5884 5883 5883 5881 5880 5879 5878 5877 5877 5876 5875 5874
5860 5865 5871 5878 5883 5886 5889 5889 5891 5893 5895 5895 5895 5896 5897 5897 5898 5896 5895 5894 5896 5896 5896 5895 5895 5893 5893 5892 5892 5890 5888 5887 5886 5886 5886 5885 5886 5886 5885 5885 5883 5882 5881 5880 5879 5878 5877 5877 5876
5862 5866 5872 5875 5879 5885 5887 5888 5890 5893 5895 5895 5897 5898 5898 5899 5900 5899 5898 5898 5898 5897 5897 5897 5896 5895 5894 5893 5892 5892 5890 5889 5887 5887 5888 5887 5887 5887 5888 5887 5885 5885 5883 5882 5881 5880 5879 5878 5877
5864 5867 5873 5877 5882 5884 5887 5888 5889 5889 5890 5891 5894 5898 5899 5901 5901 5901 5900 5899 5899 5899 5899 5898 5898 5896 5895 5894 5893 5892 5892 5891 5890 5888 5887 5888 5888 5889 5889 5888 5888 5887 5886 5884 5883 5882 5881 5879 5878
5867 5871 5876 5880 5884 5887 5889 5889 5888 5883 5883 5890 5893 5896 5899 5900 5902 5902 5901 5901 5901 5901 5900 5899 5898 5897 5896 5896 5895 5894 5894 5893 5892 5890 5889 5887 5887 5888 5889 5889 5888 5888 5887 5886 5884 5882 5881 5880 5879
5871 5875 5879 5882 5884 5888 5890 5892 5889 5892 5889 5888 5892 5896 5897 5900 5902 5902 5902 5902 5902 5901 5900 5900 5899 5897 5897 5896 5895 5894 5894 5894 5894 5892 5890 5889 5887 5886 5886 5887 5887 5887 5886 5886 5885 5884 5882 5881 5880
5875 5878 5880 5883 5886 5890 5891 5892 5895 5894 5892 5891 5891 5894 5897 5901 5901 5902 5901 5902 5902 5901 5901 5900 5899 5898 5896 5895 5894 5894 5893 5892 5892 5892 5892 5890 5889 5887 5885 5885 5885 5885 5884 5884 5884 5883 5882 5881 5881
5875 5881 5882 5885 5888 5892 5893 5893 5896 5896 5895 5894 5897 5898 5900 5901 5901 5901 5901 5901 5901 5900 5900 5899 5898 5897 5896 5895 5894 5893 5892 5891 5890 5890 5889 5888 5888 5886 5886 5885 5883 5882 5882 5881 5881 5881 5881 5880 5880
5879 5884 5885 5888 5891 5893 5894 5895 5895 5895 5895 5896 5895 5898 5899 5900 5900 5901 5901 5901 5901 5900 5899 5898 5897 5896 5894 5893 5892 5891 5891 5890 5888 5887 5886 5886 5885 5884 5883 5883 5882 5881 5880 5879 5879 5878 5877 5877 5877
5884 5886 5888 5890 5892 5893 5894 5895 5896 5897 5896 5897 5896 5897 5899 5901 5901 5901 5901 5901 5900 5899 5898 5897 5896 5895 5893 5892 5891 5890 5888 5887 5885 5884 5883 5883 5882 5882 5881 5881 5879 5879 5878 5876 5876 5875 5874 5874 5873
5885 5887 5888 5890 5892 5893 5894 5894 5895 5896 5896 5896 5897 5897 5899 5900 5900 5901 5900 5899 5898 5897 5896 5895 5894 5893 5892 5890 5889 5887 5886 5884 5883 5881 5880 5879 5877 5877 5877 5877 5877 5876 5875 5874 5873 5872 5871 5870 5869
5887 5888 5889 5890 5891 5892 5893 5893 5894 5894 5895 5897 5898 5899 5899 5899 5899 5898 5898 5897 5897 5895 5894 5892 5891 5889 5888 5887 5886 5884 5882 5881 5879 5878 5877 5874 5873 5872 5870 5870 5870 5871 5870 5868 5867 5867 5867 5866 5865
5887 5889 5889 5890 5891 5892 5894 5894 5895 5895 5896 5897 5898 5898 5898 5898 5898 5897 5896 5895 5895 5893 5892 5890 5888 5886 5884 5883 5881 5880 5877 5876 5874 5873 5872 5870 5869 5867 5865 5863 5863 5863 5863 5863 5862 5861 5861 5861 5861
5888 5889 5890 5891 5892 5893 5894 5894 5895 5895 5896 5896 5897 5897 5897 5896 5896 5895 5894 5893 5892 5890 5888 5886 5885 5882 5880 5878 5876 5874 5873 5871 5869 5867 5865 5864 5863 5861 5859 5858 5857 5856 5855 5855 5855 5854 5854 5854 5854
5890 5890 5891 5892 5893 5893 5893 5894 5894 5895 5895 5894 5895 5895 5895 5894 5893 5892 5891 5890 5887 5886 5884 5882 5880 5877 5875 5873 5871 5869 5866 5864 5862 5860 5858 5856 5855 5854 5852 5850 5850 5849 5848 5847 5846 5846 5846 5846 5845
5891 5892 5892 5892 5893 5894 5895 5895 5895 5895 5895 5895 5894 5894 5894 5893 5892 5890 5888 5887 5885 5883 5880 5877 5874 5871 5868 5866 5864 5861 5860 5857 5855 5852 5850 5848 5846 5844 5843 5842 5841 5840 5840 5839 5838 5838 5838 5837 5837
5892 5892 5893 5893 5893 5894 5895 5895 5894 5894 5895 5894 5893 5893 5892 5891 5889 5887 5884 5883 5881 5878 5875 5872 5869 5866 5863 5860 5858 5855 5853 5851 5848 5845 5841 5838 5836 5835 5833 5832 5832 5831 5830 5830 5829 5829 5829 5829 5829
5894 5895 5896 5895 5895 5895 5895 5895 5895 5894 5893 5891 5891 5890 5888 5885 5882 5881 5879 5877 5874 5871 5868 5865 5862 5860 5858 5854 5852 5851 5847 5844 5840 5837 5833 5829 5826 5824 5823 5822 5821 5821 5821 5820 5820 5819 5819 5819 5819
5895 5895 5895 5895 5896 5896 5895 5894 5893 5892 5890 5889 5889 5885 5882 5880 5878 5875 5870 5868 5867 5864 5862 5859 5857 5854 5851 5849 5846 5843 5840 5837 5833 5829 5825 5822 5818 5815 5813 5812 5812 5811 5811 5811 5811 5810 5810 5809 5809
5895 5895 5895 5895 5895 5895 5893 5891 5889 5887 5886 5884 5882 5880 5878 5876 5874 5870 5867 5864 5861 5858 5856 5853 5851 5847 5845 5843 5841 5837 5833 5830 5826 5823 5819 5815 5813 5810 5807 5805 5803 5802 5801 5801 5800 5800 5800 5801 5800
5894 5894 5895 5896 5894 5892 5891 5889 5887 5885 5882 5880 5879 5877 5876 5873 5869 5866 5862 5859 5856 5853 5850 5846 5844 5842 5840 5838 5836 5832 5828 5824 5821 5818 5814 5811 5809 5806 5803 5800 5798 5796 5794 5793 5792 5791 5790 5790 5791
5893 5894 5893 5893 5892 5891 5889 5887 5884 5882 5880 5877 5875 5873 5872 5869 5866 5862 5859 5855 5852 5848 5845 5842 5839 5836 5834 5831 5829 5826 5823 5819 5816 5813 5810 5806 5803 5801 5798 5795 5793 5791 5789 5787 5786 5784 5783 5781 5781
5892 5891 5891 5890 5889 5888 5888 5886 5883 5881 5878 5875 5872 5869 5867 5865 5861 5857 5853 5850 5847 5842 5838 5835 5833 5830 5828 5825 5823 5820 5817 5814 5812 5808 5805 5802 5799 5797 5795 5792 5790 5788 5786 5785 5783 5781 5779 5777 5775
5888 5888 5888 5888 5887 5887 5885 5884 5880 5878 5875 5872 5868 5865 5861 5858 5855 5852 5848 5845 5841 5837 5832 5829 5826 5824 5821 5819 5816 5813 5810 5809 5806 5803 5801 5798 5794 5792 5790 5788 5786 5784 5781 5779 5778 5776 5775 5773 5771
5884 5884 5885 5885 5884 5884 5882 5881 5878 5875 5872 5870 5866 5862 5858 5855 5851 5847 5843 5839 5835 5831 5826 5823 5819 5816 5814 5812 5810 5807 5803 5801 5799 5797 5794 5791 5789 5786 5783 5781 5779 5777 5775 5773 5771 5769 5768 5766 5764
5880 5880 5880 5881 5881 5881 5879 5877 5874 5871 5868 5865 5861 5857 5852 5849 5845 5841 5838 5833 5828 5823 5819 5816 5812 5810 5807 5804 5801 5798 5795 5792 5789 5787 5785 5782 5780 5778 5776 5774 5771 5770 5767 5765 5763 5761 5759 5757 5756
5876 5876 5876 5875 5875 5875 5875 5872 5869 5866 5863 5859 5856 5852 5848 5843 5839 5834 5830 5826 5821 5816 5811 5808 5804 5800 5797 5795 5792 5788 5785 5782 5780 5778 5775 5772 5769 5767 5765 5763 5761 5760 5757 5755 5752 5750 5748 5747 5745
5871 5871 5871 5870 5868 5868 5867 5865 5862 5860 5857 5854 5850 5846 5842 5838 5833 5828 5823 5818 5813 5808 5804 5800 5796 5792 5787 5783 5780 5777 5774 5771 5768 5766 5763 5760 5758 5755 5753 5750 5748 5746 5743 5741 5739 5737 5735 5733 5731
5866 5866 5864 5863 5862 5860 5859 5857 5855 5852 5849 5846 5843 5838 5834 5831 5826 5821 5816 5811 5806 5801 5796 5791 5786 5782 5778 5773 5769 5766 5763 5759 5756 5752 5749 5746 5744 5741 5738 5735 5733 5731 5728 5725 5724 5722 5720 5718 5716
5861 5860 5859 5856 5857 5855 5852 5851 5846 5843 5841 5838 5834 5830 5826 5822 5818 5813 5808 5803 5798 5793 5787 5782 5777 5773 5768 5764 5759 5755 5750 5746 5743 5739 5735 5732 5729 5726 5722 5719 5716 5714 5711 5708 5706 5704 5701 5699 5698